This demonstration page uses our WeatherBlox Daily Observations layout. Learn more.

Left ArrowRight Arrow

53.62937, 11.41316

Hourly Observations for October 27, 2019

Temp ( °F °C ) Dew Point ( °F °C ) Humidity (%) Winds ( mph kmh ) Pressure ( in mb ) Visibility ( mi km ) Precip ( " mm )
6:50 am 06:50 Mostly Clear 50 10 45 7 82 82 W 9 15 29.83 1010 7 11 N/A
7:20 am 07:20 Mostly Sunny 50 10 45 7 82 82 W 8 13 29.85 1011 30 48 N/A
7:50 am 07:50 Mostly Cloudy 50 10 43 6 76 76 W 9 15 29.88 1012 30 48 N/A
8:20 am 08:20 Mostly Sunny 50 10 43 6 76 76 W 8 13 29.88 1012 30 48 N/A
8:50 am 08:50 Mostly Sunny 50 10 43 6 76 76 W 9 15 29.91 1013 7 11 N/A
9:20 am 09:20 Mostly Sunny 52 11 43 6 72 72 WSW 13 20 29.91 1013 7 11 N/A
9:50 am 09:50 Mostly Sunny 52 11 41 5 67 67 W 14 22 29.94 1014 7 11 N/A
10:20 am 10:20 Mostly Sunny 52 11 41 5 67 67 W 10 17 29.94 1014 7 11 N/A
10:50 am 10:50 Mostly Sunny 52 11 39 4 62 62 W 15 24 29.94 1014 7 11 N/A
11:20 am 11:20 Mostly Sunny 52 11 39 4 62 62 W 15 24 29.97 1015 30 48 N/A
11:50 am 11:50 Mostly Sunny 54 12 41 5 63 63 W 15 24 29.97 1015 30 48 N/A
12:20 pm 12:20 Mostly Sunny 54 12 41 5 63 63 W 16 26 29.97 1015 30 48 N/A
12:50 pm 12:50 Partly Cloudy 54 12 41 5 63 63 W 14 22 29.97 1015 30 48 N/A
1:20 pm 13:20 Partly Cloudy 54 12 41 5 63 63 W 12 19 29.97 1015 30 48 N/A
1:50 pm 13:50 Partly Cloudy 55 13 41 5 59 59 W 8 13 29.97 1015 30 48 N/A
2:20 pm 14:20 Partly Cloudy 54 12 39 4 58 58 W 17 28 29.97 1015 30 48 N/A
2:50 pm 14:50 Partly Cloudy 54 12 41 5 63 63 W 13 20 30.00 1016 30 48 N/A
3:20 pm 15:20 Mostly Sunny 54 12 39 4 58 58 W 16 26 30.00 1016 30 48 N/A
3:50 pm 15:50 Mostly Sunny 54 12 41 5 63 63 W 15 24 30.00 1016 30 48 N/A
4:20 pm 16:20 Partly Cloudy 52 11 41 5 67 67 WSW 14 22 30.00 1016 30 48 N/A
4:50 pm 16:50 Mostly Sunny 50 10 43 6 76 76 WSW 13 20 30.00 1016 30 48 N/A
5:20 pm 17:20 Mostly Clear 50 10 41 5 71 71 WSW 10 17 30.00 1016 30 48 N/A
5:50 pm 17:50 Mostly Clear 50 10 41 5 71 71 WSW 10 17 30.00 1016 30 48 N/A
6:20 pm 18:20 Mostly Clear 50 10 41 5 71 71 WSW 12 19 30.00 1016 30 48 N/A
6:50 pm 18:50 Mostly Clear 48 9 41 5 76 76 SW 9 15 30.00 1016 30 48 N/A
7:20 pm 19:20 Mostly Clear 48 9 41 5 76 76 WSW 10 17 30.03 1017 30 48 N/A
7:50 pm 19:50 Mostly Clear 48 9 41 5 76 76 WSW 10 17 30.00 1016 30 48 N/A

Powered by AerisWeather